Weather History for Marfa, TX

Change the Weather History Date:

Wednesday, March 26, 2014

  Actual Average Record
Temperature  
Mean Temperature 53 °F -  
Max Temperature 73 °F 68 °F 86 °F (1998)
Min Temperature 33 °F 37 °F 23 °F (2013)
Degree Days  
Heating Degree Days 12    
Growing Degree Days 3 (Base 50)    
Moisture  
Dew Point 29 °F    
Average Humidity 48    
Maximum Humidity 93    
Minimum Humidity 12    
Precipitation  
Precipitation 0.00 in - - ()
Sea Level Pressure  
Sea Level Pressure 29.96 in    
Wind  
Wind Speed 7 mph (SW)    
Max Wind Speed 26 mph    
Max Gust Speed 34 mph    
Visibility 10 miles    
Events      
Averages and records for this station are not official NWS values.
T = Trace of Precipitation, MM = Missing Value Source: NWS Daily Summary

Daily Weather History Graph

Daily Weather History Graph

Search for Another Location

Airport:

Trip Planner

Search our weather history database for the weather conditions in past years. The results will help you decide how hot, cold, wet, or windy it might be!

Date:

Astronomy

Mar. 26, 2014 Rise Set
Actual Time 7:52 AM CDT 8:11 PM CDT
Civil Twilight 7:28 AM CDT 8:35 PM CDT
Nautical Twilight 7:00 AM CDT 9:03 PM CDT
Astronomical Twilight 6:31 AM CDT 9:31 PM CDT
Moon 4:45 AM CDT (3/26) 4:08 PM CDT (3/26)
Length of Visible Light 13h 06m
Length of Day
12h 18m
Waning Crescent, 21% of the Moon is Illuminated
Mar 26
Waning Crescent
Mar 30
New
Apr 7
First Quarter
Apr 15
Full
Apr 22
Last Quarter

Hourly Weather History & Observations

Time (CDT) Temp. Windchill Dew Point Humidity Pressure Visibility Wind Dir Wind Speed Gust Speed Precip Events Conditions
12:15 AM 51.8 °F - 41.0 °F 67% 30.05 in 10.0 mi ESE 5.8 mph - N/A   Mostly Cloudy
12:35 AM 50.0 °F - 41.0 °F 71% 30.04 in 10.0 mi ESE 5.8 mph - N/A   Scattered Clouds
12:55 AM 48.2 °F - 39.2 °F 71% 30.03 in 10.0 mi SE 4.6 mph - N/A   Scattered Clouds
1:15 AM 48.2 °F - 39.2 °F 71% 30.03 in 10.0 mi ESE 4.6 mph - N/A   Partly Cloudy
1:35 AM 46.4 °F 45.2 °F 39.2 °F 76% 30.02 in 10.0 mi ESE 3.5 mph - N/A   Partly Cloudy
1:55 AM 46.4 °F - 39.2 °F 76% 30.01 in 10.0 mi Calm Calm - N/A   Partly Cloudy
2:15 AM 44.6 °F 42.2 °F 37.4 °F 76% 30.01 in 10.0 mi East 4.6 mph - N/A   Partly Cloudy
2:35 AM 44.6 °F - 37.4 °F 76% 30.00 in 10.0 mi Calm Calm - N/A   Clear
2:55 AM 41.0 °F - 37.4 °F 87% 29.99 in 10.0 mi Calm Calm - N/A   Clear
3:15 AM 44.6 °F 41.4 °F 39.2 °F 81% 29.99 in 10.0 mi SE 5.8 mph - N/A   Partly Cloudy
3:35 AM 44.6 °F 42.2 °F 39.2 °F 81% 29.98 in 10.0 mi SE 4.6 mph - N/A   Partly Cloudy
3:55 AM 44.6 °F 43.1 °F 39.2 °F 81% 29.97 in 10.0 mi East 3.5 mph - N/A   Clear
4:15 AM 39.2 °F 37.0 °F 35.6 °F 87% 29.97 in 10.0 mi North 3.5 mph - N/A   Clear
4:35 AM 41.0 °F - 37.4 °F 87% 29.97 in 10.0 mi Calm Calm - N/A   Clear
4:55 AM 42.8 °F - 39.2 °F 87% 29.97 in 10.0 mi Calm Calm - N/A   Clear
5:15 AM 41.0 °F 39.0 °F 37.4 °F 87% 29.97 in 10.0 mi SSW 3.5 mph - N/A   Clear
5:35 AM 41.0 °F - 37.4 °F 87% 29.96 in 10.0 mi Calm Calm - N/A   Clear
5:55 AM 37.4 °F 33.8 °F 33.8 °F 87% 29.97 in 10.0 mi NW 4.6 mph - N/A   Clear
6:15 AM 35.6 °F - 33.8 °F 93% 29.97 in 10.0 mi Calm Calm - N/A   Clear
6:35 AM 35.6 °F 32.8 °F 32.0 °F 87% 29.97 in 10.0 mi NNE 3.5 mph - N/A   Clear
6:55 AM 33.8 °F 30.8 °F 32.0 °F 93% 29.97 in 10.0 mi NE 3.5 mph - N/A   Clear
7:15 AM 37.4 °F 32.8 °F 35.6 °F 93% 29.98 in 10.0 mi NE 5.8 mph - N/A   Clear
7:35 AM 35.6 °F 30.7 °F 33.8 °F 93% 29.99 in 10.0 mi NE 5.8 mph - N/A   Clear
7:55 AM 33.8 °F 30.8 °F 32.0 °F 93% 29.99 in 10.0 mi NE 3.5 mph - N/A   Clear
8:15 AM 33.8 °F - 32.0 °F 93% 30.00 in 10.0 mi Calm Calm - N/A   Clear
8:35 AM 35.6 °F - 33.8 °F 93% 30.01 in 10.0 mi Calm Calm - N/A   Clear
8:55 AM 39.2 °F - 37.4 °F 93% 30.01 in 10.0 mi Calm Calm - N/A   Clear
9:15 AM 44.6 °F - 41.0 °F 87% 30.02 in 10.0 mi Calm Calm - N/A   Clear
9:35 AM 46.4 °F - 41.0 °F 81% 30.02 in 10.0 mi Calm Calm - N/A   Clear
9:55 AM 50.0 °F - 42.8 °F 76% 30.03 in 10.0 mi South 4.6 mph - N/A   Clear
10:15 AM 51.8 °F - 42.8 °F 71% 30.02 in 10.0 mi South 8.1 mph - N/A   Clear
10:35 AM 53.6 °F - 42.8 °F 67% 30.02 in 10.0 mi SSE 9.2 mph - N/A   Clear
10:55 AM 57.2 °F - 42.8 °F 59% 30.02 in 10.0 mi South 8.1 mph - N/A   Clear
11:15 AM 62.6 °F - 42.8 °F 48% 30.02 in 10.0 mi SSW 11.5 mph - N/A   Clear
11:35 AM 64.4 °F - 39.2 °F 40% 30.01 in 10.0 mi SSW 9.2 mph - N/A   Clear
11:55 AM 66.2 °F - 26.6 °F 23% 30.01 in 10.0 mi West 20.7 mph 24.2 mph N/A   Clear
12:15 PM 68.0 °F - 26.6 °F 21% 30.01 in 10.0 mi WSW 17.3 mph 25.3 mph N/A   Clear
12:35 PM 68.0 °F - 28.4 °F 23% 30.00 in 10.0 mi WSW 17.3 mph 27.6 mph N/A   Clear
12:55 PM 68.0 °F - 28.4 °F 23% 30.00 in 10.0 mi SW 17.3 mph 21.9 mph N/A   Clear
1:15 PM 69.8 °F - 28.4 °F 21% 30.00 in 10.0 mi WSW 18.4 mph 24.2 mph N/A   Clear
1:35 PM 69.8 °F - 28.4 °F 21% 29.99 in 10.0 mi West 18.4 mph 27.6 mph N/A   Clear
1:55 PM 69.8 °F - 26.6 °F 20% 29.98 in 10.0 mi SW 17.3 mph 21.9 mph N/A   Clear
2:15 PM 69.8 °F - 26.6 °F 20% 29.97 in 10.0 mi WSW 18.4 mph 29.9 mph N/A   Clear
2:35 PM 71.6 °F - 24.8 °F 17% 29.97 in 10.0 mi WSW 20.7 mph 29.9 mph N/A   Clear
2:55 PM 71.6 °F - 24.8 °F 17% 29.96 in 10.0 mi WSW 17.3 mph 29.9 mph N/A   Clear
3:15 PM 71.6 °F - 24.8 °F 17% 29.95 in 10.0 mi West 21.9 mph 27.6 mph N/A   Clear
3:35 PM 71.6 °F - 24.8 °F 17% 29.94 in 10.0 mi SW 18.4 mph 34.5 mph N/A   Clear
3:55 PM 73.4 °F - 21.2 °F 14% 29.93 in 10.0 mi SW 15.0 mph 29.9 mph N/A   Clear
4:15 PM 73.4 °F - 21.2 °F 14% 29.92 in 10.0 mi WSW 19.6 mph 26.5 mph N/A   Clear
4:35 PM 73.4 °F - 21.2 °F 14% 29.91 in 10.0 mi WSW 20.7 mph 26.5 mph N/A   Clear
4:55 PM 73.4 °F - 19.4 °F 13% 29.90 in 10.0 mi WSW 20.7 mph 27.6 mph N/A   Clear
5:15 PM 73.4 °F - 19.4 °F 13% 29.90 in 10.0 mi WSW 16.1 mph 27.6 mph N/A   Clear
5:35 PM 73.4 °F - 19.4 °F 13% 29.90 in 10.0 mi WSW 26.5 mph 31.1 mph N/A   Clear
5:55 PM 73.4 °F - 17.6 °F 12% 29.89 in 10.0 mi WSW 20.7 mph 31.1 mph N/A   Clear
6:15 PM 73.4 °F - 17.6 °F 12% 29.89 in 10.0 mi WSW 24.2 mph 28.8 mph N/A   Clear
6:35 PM 71.6 °F - 17.6 °F 13% 29.88 in 10.0 mi WSW 18.4 mph 28.8 mph N/A   Clear
6:55 PM 71.6 °F - 17.6 °F 13% 29.88 in 10.0 mi WSW 20.7 mph 27.6 mph N/A   Clear
7:15 PM 71.6 °F - 19.4 °F 14% 29.88 in 10.0 mi SW 19.6 mph 25.3 mph N/A   Clear
7:35 PM 69.8 °F - 19.4 °F 15% 29.87 in 10.0 mi SW 15.0 mph - N/A   Clear
7:55 PM 68.0 °F - 17.6 °F 15% 29.87 in 10.0 mi SW 11.5 mph - N/A   Clear
8:15 PM 64.4 °F - 17.6 °F 16% 29.87 in 10.0 mi SW 8.1 mph - N/A   Clear
8:35 PM 60.8 °F - 17.6 °F 19% 29.86 in 10.0 mi SSW 9.2 mph - N/A   Clear
8:55 PM 60.8 °F - 19.4 °F 20% 29.87 in 10.0 mi SSW 9.2 mph - N/A   Clear
9:15 PM 57.2 °F - 19.4 °F 23% 29.87 in 10.0 mi SSW 6.9 mph - N/A   Clear
9:35 PM 57.2 °F - 17.6 °F 21% 29.87 in 10.0 mi South 5.8 mph - N/A   Clear
9:55 PM 55.4 °F - 17.6 °F 23% 29.87 in 10.0 mi SW 5.8 mph - N/A   Clear
10:15 PM 55.4 °F - 17.6 °F 23% 29.88 in 10.0 mi SSW 5.8 mph - N/A   Clear
10:35 PM 53.6 °F - 15.8 °F 22% 29.88 in 10.0 mi Calm Calm - N/A   Clear
10:55 PM 46.4 °F - 14.0 °F 27% 29.88 in 10.0 mi Calm Calm - N/A   Clear
11:15 PM 48.2 °F - 17.6 °F 30% 29.88 in 10.0 mi Calm Calm - N/A   Clear
11:35 PM 46.4 °F 44.3 °F 15.8 °F 29% 29.88 in 10.0 mi SSW 4.6 mph - N/A   Clear
11:55 PM 51.8 °F - 17.6 °F 26% 29.89 in 10.0 mi South 4.6 mph - N/A   Clear